Temp_Advection
nan nan nan nan nan nan nan nan nan nan nan nan nan nan nan nan nan nan nan nan nan nan nan nan nan nan nan nan nan nan nan nan nan nan nan nan nan nan nan nan nan nan nan nan nan
nan -0 0 0 0 -0 -0 0 0 0 0 0 -0 0 0 0 0 0 0 0 0 0 0 0 0 0 0 0 -0 -1 0 0 -0 0 0 0 0 0 0 -0 0 0 -0 0 nan
nan -0 0 0 0 -0 -0 0 0 0 0 0 -0 -0 0 1 0 0 0 0 0 0 0 0 0 -0 -0 0 -0 -0 -0 0 0 0 0 0 0 -0 0 0 0 -0 -0 -0 nan
nan -0 -0 0 0 0 0 -0 0 0 0 0 0 0 0 0 0 -0 0 0 0 0 0 0 0 -0 -0 0 0 -0 0 -0 -0 0 -0 -0 -0 -0 -0 -0 -0 -0 -0 -0 nan
nan 0 -0 -0 -0 0 0 -0 0 0 0 0 0 0 0 0 0 -0 0 0 0 0 0 0 0 -0 -0 0 -0 -0 0 0 0 0 -0 -0 -0 -0 -0 -0 0 0 -0 -0 nan
nan 0 0 0 0 0 0 -0 0 0 0 0 0 0 -0 0 0 0 0 0 0 0 0 0 0 -0 -0 -0 0 0 -0 0 0 0 -0 -0 0 -0 -0 0 -0 0 -0 -0 nan
nan 0 -0 -0 0 0 0 0 0 0 0 0 0 0 0 0 0 0 0 0 0 0 0 0 0 -0 -0 -0 0 -0 -0 -0 -0 -0 -0 -0 0 -0 -0 0 0 0 0 0 nan
nan -0 0 -0 -0 0 0 0 0 0 0 0 0 -0 -0 0 0 0 0 0 0 0 0 0 0 -0 -0 0 -0 -0 -0 0 -0 0 -0 0 -0 -0 0 0 0 0 0 0 nan
nan -0 -0 0 0 0 0 0 -0 0 0 0 0 -0 -0 0 1 1 0 1 0 0 0 0 -0 -0 -0 -1 -0 -0 0 0 0 0 -0 0 -0 -0 0 0 -0 0 0 0 nan
nan 0 0 0 0 -0 -0 0 0 0 0 0 0 -0 -0 0 0 1 1 0 0 0 1 0 -1 -0 -0 0 -0 -0 0 0 -0 0 0 0 0 -1 -1 0 -0 0 0 0 nan
nan -0 0 0 -0 0 -0 0 -0 -1 -1 -0 -0 0 0 0 0 0 0 0 0 -0 -0 -0 -1 0 0 -0 -0 -0 0 0 0 -0 0 0 0 -1 -1 0 0 0 0 0 nan
nan -0 0 0 0 0 -0 -0 -0 -0 -0 0 0 0 0 1 1 0 0 -0 -0 -0 -0 -0 0 0 0 0 0 -0 -0 0 0 0 0 0 -0 -0 -0 -0 0 0 0 0 nan
nan -0 -0 0 0 0 -0 -0 -0 -0 -0 -0 0 0 0 0 0 0 0 -0 -0 -0 -0 0 -0 0 -0 -0 0 -0 0 -0 0 -0 -0 0 -0 -0 -0 -0 0 0 0 0 nan
nan 0 -0 -0 -0 0 -0 -0 0 -0 -0 0 0 0 0 0 0 0 0 0 -0 -0 -0 0 -0 -0 0 0 -0 0 0 -0 -0 -0 0 -0 -0 -0 0 0 0 1 0 0 nan
nan 0 0 0 -0 -0 -0 -0 0 -0 -0 0 0 0 0 0 0 0 0 0 -0 -0 -0 0 0 0 0 0 -0 -0 0 -0 -0 -0 -0 -0 0 -1 0 0 0 0 0 0 nan
nan -0 -0 0 -0 -0 -0 -0 0 -0 0 0 0 0 0 0 0 0 0 0 -0 -1 -0 0 0 0 0 -0 0 -0 -0 -0 -0 -0 0 -0 -0 -0 -0 0 0 -0 0 0 nan
nan 0 -0 -0 0 0 0 0 -0 0 -0 0 0 0 -0 0 0 0 -0 -0 -0 -0 -0 -0 -0 -0 -0 -0 -0 -0 -1 -0 -0 0 -0 -0 0 -1 -0 0 0 -0 -0 0 nan
nan -0 -0 0 0 0 0 -0 0 0 0 0 0 0 0 -0 -0 -0 -0 0 -0 -1 -0 0 -0 -0 0 -0 -0 -0 -0 -0 -0 0 -0 -0 -0 -0 0 0 0 0 0 0 nan
nan -0 0 0 0 0 -0 -0 0 -0 -0 -0 -0 -0 -0 -0 -0 -0 -0 -0 -0 -0 -1 -0 -0 -0 -0 -0 -0 0 0 -0 -0 0 0 -0 -1 0 0 0 0 0 0 0 nan
nan 0 0 0 0 -0 -0 0 0 -0 -0 -0 -0 -0 -0 -0 0 -0 0 -0 -0 -0 -0 -0 0 -0 -0 -0 -0 -0 -0 -0 0 0 0 0 -0 0 0 0 0 0 -0 -0 nan
nan -0 0 0 0 -1 -0 0 0 0 0 -0 -0 0 -0 -0 -0 0 0 -0 -0 0 0 -0 -0 0 -0 0 0 0 0 -0 -0 -0 0 -0 -0 -0 -0 0 0 -0 -0 0 nan
nan 0 0 0 -0 -1 0 0 0 -0 -0 0 -0 0 -0 0 -0 -0 -0 -0 -0 -0 -0 -0 -0 0 0 -0 -0 -0 -0 -0 0 -0 0 0 -0 -0 0 0 -0 -0 -0 -0 nan
nan -0 0 -0 -1 0 0 0 0 0 0 0 0 0 0 -0 -0 -0 0 0 -0 -0 -0 0 -0 0 -0 -0 -0 0 0 -0 -0 -0 0 0 -0 0 0 -0 -0 -0 -0 -0 nan
nan -0 0 -0 -0 -0 0 0 0 0 0 0 0 -0 -0 -0 -0 -0 0 -0 -0 -0 -0 -0 0 -0 -0 0 0 0 0 0 -0 -0 -0 -0 -0 -0 0 -0 -1 -1 -1 -0 nan
nan -0 -0 0 0 0 0 0 -0 -0 -0 -0 -0 -0 -0 0 -0 -0 -0 -0 -0 0 -0 -0 0 0 0 -0 -0 0 0 0 -0 -1 -0 -0 -1 -1 0 -1 -2 -1 1 1 nan
nan -0 -0 -0 0 -0 -0 0 0 0 0 -0 -0 -0 -0 0 0 0 0 0 0 0 0 0 0 -0 -0 -0 0 0 -0 -0 -0 0 -1 -0 -1 -1 0 1 -0 -0 1 -0 nan
nan nan nan nan nan nan nan nan nan nan nan nan nan nan nan nan nan nan nan nan nan nan nan nan nan nan nan nan nan nan nan nan nan nan nan nan nan nan nan nan nan nan nan nan nan
Wind_Speed
13 9 9 10 15 11 11 9 9 8 5 8 15 15 19 15 9 9 8 4 3 11 13 16 19 14 12 6 4 2 4 3 2 4 5 2 2 4 3 3 4 4 6 6 3
5 3 5 6 6 8 11 9 9 9 8 7 14 16 16 17 11 10 8 8 5 11 17 19 18 15 8 4 2 5 4 3 2 2 4 5 5 2 2 3 2 3 4 3 5
5 5 4 5 8 5 7 8 11 8 9 9 7 15 15 19 14 4 7 7 7 14 16 21 15 14 6 6 2 3 4 5 3 7 6 3 3 2 3 1 4 2 7 10 13
9 8 7 5 7 8 8 9 8 10 9 9 7 10 17 17 8 6 9 7 15 14 9 14 11 6 5 6 2 6 7 7 5 3 3 2 1 1 4 4 2 7 8 11 10
11 9 9 9 6 7 8 7 8 8 8 7 7 13 16 14 7 6 9 12 16 12 9 11 10 6 6 9 7 5 4 8 7 4 2 0 1 4 8 8 8 3 2 4 5
11 10 9 9 8 5 5 7 9 9 7 5 7 16 12 6 10 10 11 15 13 13 10 11 4 7 10 6 5 7 10 8 4 3 2 1 1 5 0 8 7 2 1 2 4
12 11 11 10 11 11 11 9 11 7 7 7 9 13 7 5 10 12 13 12 11 12 10 10 9 3 6 5 8 12 5 3 1 1 1 3 3 6 7 8 5 3 7 7 4
10 10 10 11 11 11 10 8 10 9 7 6 11 9 6 8 11 17 11 8 6 10 12 11 10 14 5 11 5 5 5 3 1 2 1 2 4 4 13 10 4 6 11 11 7
11 9 9 10 9 10 10 10 12 12 10 9 12 9 4 12 20 24 9 10 7 10 12 11 10 7 5 5 5 6 2 2 1 3 1 1 3 4 8 9 15 9 12 10 6
10 11 11 10 8 12 15 17 17 17 17 9 11 10 5 7 13 17 14 4 5 11 11 5 5 4 3 5 4 4 4 2 1 0 1 3 8 8 14 20 15 9 14 11 5
10 10 10 9 12 14 16 19 9 11 29 14 7 15 19 19 20 18 12 4 6 6 3 4 6 3 4 3 5 6 5 4 2 0 2 5 8 9 20 19 7 13 16 10 4
8 10 13 15 15 12 9 10 12 12 12 23 24 22 12 14 12 10 7 5 5 4 3 6 4 2 4 5 5 5 6 2 1 1 2 4 14 10 12 9 15 17 12 9 6
7 10 13 14 8 8 17 20 18 10 7 12 17 13 9 12 4 9 8 9 8 5 4 5 4 3 4 4 6 5 6 2 3 4 1 5 6 2 2 3 10 9 10 7 4
9 13 13 10 9 18 19 15 10 1 5 10 8 7 7 4 8 8 6 5 4 5 5 6 3 4 5 4 3 3 1 3 3 3 2 4 4 5 2 5 6 10 9 5 4
15 16 14 4 13 13 13 7 8 0 5 7 5 4 7 4 9 7 8 6 4 2 4 5 3 3 5 1 2 3 1 2 1 2 3 1 3 6 2 5 7 10 9 5 6
16 14 14 13 13 11 6 5 9 5 6 3 3 3 3 7 2 3 4 6 5 8 7 3 1 2 2 3 3 2 3 4 3 2 3 3 3 5 4 5 3 6 9 6 7
9 10 11 12 8 5 1 10 4 6 2 4 4 2 5 3 3 3 3 3 3 5 4 2 3 2 2 4 4 3 5 3 5 4 4 2 2 9 6 4 5 9 10 9 9
5 4 1 2 1 2 8 3 8 5 4 2 3 4 4 7 3 1 2 2 2 5 3 4 5 2 3 3 5 2 4 4 5 0 4 3 5 6 2 3 5 7 7 7 9
12 7 4 3 6 7 3 6 5 4 5 5 3 0 2 1 3 1 2 2 1 3 5 4 2 2 3 2 3 3 1 1 4 2 2 3 7 6 2 6 8 11 10 10 8
8 6 13 9 7 6 5 6 4 3 3 3 1 2 3 4 3 2 2 1 3 2 4 6 4 4 1 2 1 2 5 3 2 2 4 4 5 5 4 7 7 9 14 9 7
5 3 15 9 9 8 3 3 4 2 1 4 1 4 3 3 3 2 1 1 4 1 2 3 4 2 3 5 7 3 1 3 2 4 3 3 6 6 7 5 6 10 11 10 9
3 3 10 8 4 4 2 2 3 3 2 2 0 3 2 2 2 2 3 4 4 4 1 2 4 4 8 4 6 4 7 5 4 4 3 2 7 3 6 5 8 10 11 12 13
3 3 10 9 3 3 2 3 3 4 3 4 4 4 3 2 3 2 2 2 3 3 2 1 1 2 6 5 2 4 5 4 3 2 5 4 6 1 4 5 11 14 15 16 16
1 2 4 5 4 4 2 2 2 2 3 3 3 4 4 4 3 2 2 1 2 3 4 3 0 4 6 4 4 5 6 7 6 3 3 9 8 7 7 9 14 20 21 21 22
2 1 1 1 2 3 2 1 2 3 3 3 3 3 2 1 2 2 2 1 1 2 2 3 3 2 6 9 6 8 9 9 12 16 9 5 12 15 10 12 23 24 23 24 27
1 3 3 3 0 2 2 3 3 1 0 1 3 3 3 2 3 5 3 3 5 1 4 2 3 2 5 4 5 8 14 16 17 16 18 17 24 18 28 20 20 25 27 28 32
3 2 1 1 1 3 3 4 4 4 3 3 3 1 2 2 3 2 4 2 1 5 5 3 1 2 5 3 8 9 15 19 7 6 20 16 26 2 6 5 16 22 22 27 32
Wind_Direction
243 259 268 229 234 228 195 197 189 171 160 189 191 179 193 192 189 165 160 170 145 143 147 151 146 140 131 108 115 105 66 74 93 140 159 93 113 66 62 99 78 70 92 114 141
191 265 216 139 182 185 183 175 192 170 157 141 187 185 169 177 166 157 153 135 126 152 148 149 136 138 107 103 55 74 83 128 287 131 129 114 107 79 111 47 80 115 92 5 296
91 69 113 169 192 190 172 192 183 172 161 176 156 185 173 163 190 166 164 153 161 160 149 147 137 132 102 95 16 81 125 149 62 87 123 121 99 59 122 137 120 350 318 313 315
79 80 89 109 133 164 176 192 162 170 164 161 153 161 176 150 169 206 169 153 159 167 165 159 155 119 107 113 96 99 74 128 145 85 95 75 36 341 221 177 207 321 319 316 319
64 80 84 96 107 144 167 172 172 168 164 145 126 159 163 170 171 180 157 153 161 158 159 155 150 124 132 132 101 84 120 101 117 102 79 96 316 262 253 246 250 292 1 347 334
70 76 78 82 96 121 136 133 143 162 182 156 139 158 156 113 142 156 148 148 157 156 153 151 136 122 112 101 85 124 110 125 118 107 54 23 303 340 311 140 144 148 329 97 113
62 66 79 89 94 102 113 116 131 151 158 151 153 152 134 107 172 134 125 127 152 141 142 143 136 155 103 90 106 122 94 57 48 72 89 20 301 239 183 165 167 174 152 149 162
59 77 86 98 107 103 112 102 116 100 130 136 146 137 80 115 140 182 100 98 124 146 148 127 132 108 74 116 58 76 58 106 301 126 49 59 248 274 185 189 223 202 162 167 167
81 76 84 104 114 100 94 112 116 102 96 114 136 118 83 107 132 128 143 96 126 141 133 130 125 83 87 81 38 16 153 141 335 206 105 130 259 277 193 197 308 223 184 176 185
77 84 102 109 109 101 96 109 99 100 94 112 117 99 85 108 112 124 147 92 122 136 118 106 63 77 45 69 190 169 113 89 146 181 202 267 256 273 251 274 285 221 189 191 200
75 86 92 102 121 108 119 119 106 70 59 58 68 79 90 100 102 104 117 151 93 77 96 35 73 108 132 122 143 121 108 117 83 85 288 250 268 267 268 268 238 181 184 191 187
78 112 104 100 114 114 105 113 106 114 59 68 69 83 66 98 102 102 110 128 49 75 78 35 86 128 105 90 94 92 109 58 66 148 266 305 284 269 256 250 220 186 185 193 216
111 126 130 107 86 104 110 103 107 106 82 30 31 53 39 66 57 41 46 96 109 40 66 106 157 96 104 67 97 41 117 128 179 323 1 314 292 294 16 106 139 174 185 188 237
109 122 128 129 104 122 115 107 78 24 80 360 15 21 39 81 26 31 33 80 87 137 89 79 344 106 83 78 101 95 71 118 76 63 239 35 272 293 225 203 165 176 187 203 266
107 119 125 122 129 139 131 83 8 90 71 336 359 43 58 83 130 11 31 66 79 90 91 255 116 89 79 88 79 166 130 106 114 116 58 357 70 269 159 229 219 195 203 230 293
97 113 121 127 132 149 166 348 330 43 45 38 12 43 70 19 52 146 32 84 93 62 48 113 132 49 85 67 80 155 90 47 63 84 34 260 126 282 210 218 191 181 208 243 277
109 104 117 125 135 143 202 321 39 58 286 34 50 349 90 40 17 39 57 41 119 89 17 359 12 11 91 82 4 73 55 354 359 17 215 309 87 247 258 218 211 193 222 251 275
111 130 85 276 282 225 323 59 65 14 58 121 118 35 96 179 328 91 91 55 90 85 98 113 340 217 193 198 168 78 131 146 189 221 275 8 240 255 271 193 208 217 245 245 237
63 56 47 3 277 287 350 52 132 192 171 167 166 153 197 284 139 120 196 144 132 157 130 130 313 304 232 178 145 267 67 175 91 9 35 244 287 293 209 249 230 231 232 239 249
11 4 30 44 57 55 61 99 85 147 134 157 283 198 129 179 154 157 153 216 175 179 167 197 96 217 214 43 329 111 157 84 57 141 264 281 268 241 262 255 225 232 238 248 255
6 16 10 14 31 50 83 68 63 29 26 182 261 101 127 182 188 173 152 278 193 173 38 155 103 144 115 205 180 149 274 193 143 157 187 294 262 216 206 212 230 241 245 237 228
43 38 1 31 52 50 57 5 2 3 9 312 109 64 85 5 101 84 151 222 173 137 117 49 119 172 209 259 194 181 188 163 135 235 225 163 272 274 210 211 217 240 236 230 222
87 78 29 40 81 353 346 51 55 16 359 30 37 24 13 47 73 88 86 26 98 64 92 339 17 47 350 352 356 212 203 182 124 90 219 153 260 250 269 252 242 240 233 227 223
166 52 61 59 79 121 98 35 82 22 347 19 30 42 14 24 43 112 96 32 90 76 75 57 339 189 193 208 152 207 216 196 162 159 208 231 282 262 247 243 244 240 237 231 225
120 134 124 196 10 100 94 24 79 20 1 16 37 53 29 61 48 94 114 56 38 141 95 118 241 236 246 242 239 232 227 206 205 219 205 205 223 251 234 229 240 245 245 236 233
5 136 149 141 206 90 354 173 162 175 142 346 118 335 11 197 208 199 164 184 206 202 175 175 263 350 282 269 220 254 240 229 228 228 242 254 273 273 263 253 256 253 255 243 238
94 116 281 151 116 94 215 186 205 165 208 197 174 55 309 209 195 242 247 238 137 168 197 163 168 33 267 334 303 280 234 208 202 213 224 236 245 282 275 254 247 260 256 253 248
Height
1454 1457 1458 1459 1459 1459 1463 1468 1470 1472 1473 1473 1476 1476 1482 1484 1487 1490 1492 1494 1494 1494 1496 1498 1501 1503 1505 1510 1511 1512 1523 1531 1529 1528 1531 1529 1530 1532 1533 1533 1534 1535 1537 1539 1539
1454 1456 1457 1457 1460 1462 1464 1466 1470 1471 1473 1473 1475 1478 1479 1479 1487 1490 1493 1493 1495 1495 1496 1499 1500 1503 1505 1510 1512 1512 1527 1527 1527 1527 1528 1529 1530 1531 1533 1534 1535 1535 1537 1538 1538
1456 1456 1457 1459 1461 1463 1464 1465 1468 1471 1473 1474 1475 1476 1477 1482 1487 1490 1492 1492 1495 1496 1497 1498 1501 1502 1505 1509 1515 1516 1523 1525 1529 1528 1528 1530 1530 1531 1532 1534 1534 1535 1535 1535 1535
1459 1459 1459 1459 1460 1461 1463 1467 1469 1470 1473 1475 1475 1477 1480 1481 1492 1488 1490 1492 1494 1497 1499 1498 1500 1502 1506 1512 1516 1520 1522 1523 1528 1529 1529 1531 1532 1531 1532 1531 1532 1533 1533 1533 1533
1462 1462 1462 1462 1461 1463 1465 1467 1469 1471 1473 1475 1475 1476 1480 1485 1487 1486 1488 1491 1494 1497 1499 1499 1501 1503 1507 1510 1514 1519 1523 1525 1528 1529 1530 1531 1532 1532 1528 1530 1531 1532 1533 1532 1533
1466 1466 1465 1464 1464 1464 1465 1468 1469 1472 1474 1475 1475 1478 1480 1484 1484 1486 1491 1491 1494 1497 1498 1499 1501 1503 1506 1510 1513 1518 1522 1527 1528 1529 1530 1532 1533 1532 1528 1527 1530 1531 1531 1531 1532
1470 1469 1468 1467 1467 1467 1468 1469 1470 1472 1474 1475 1476 1479 1481 1485 1484 1489 1490 1492 1495 1497 1499 1500 1502 1504 1508 1513 1517 1519 1525 1528 1529 1530 1532 1531 1531 1531 1528 1529 1529 1530 1530 1531 1530
1472 1471 1471 1470 1470 1470 1470 1471 1473 1474 1476 1477 1478 1480 1483 1487 1487 1489 1493 1496 1498 1499 1500 1501 1503 1505 1509 1516 1518 1523 1527 1533 1530 1531 1533 1533 1532 1526 1527 1528 1530 1530 1529 1529 1529
1475 1474 1473 1473 1472 1473 1474 1474 1476 1477 1478 1478 1481 1482 1487 1489 1490 1490 1497 1499 1501 1501 1502 1503 1504 1509 1514 1521 1534 1533 1544 1532 1531 1531 1533 1535 1532 1526 1527 1526 1526 1528 1528 1527 1526
1477 1477 1475 1475 1475 1476 1476 1478 1479 1480 1480 1483 1483 1487 1491 1492 1492 1494 1499 1501 1504 1504 1505 1507 1508 1514 1520 1526 1547 1536 1539 1529 1531 1533 1533 1533 1532 1525 1525 1524 1522 1523 1525 1525 1525
1479 1479 1477 1476 1478 1478 1480 1481 1484 1487 1485 1489 1490 1490 1492 1495 1497 1499 1503 1505 1505 1506 1510 1511 1518 1527 1522 1521 1523 1526 1529 1531 1530 1531 1532 1532 1529 1525 1520 1519 1518 1519 1522 1523 1523
1481 1480 1481 1480 1480 1480 1481 1481 1484 1489 1492 1493 1492 1495 1497 1499 1501 1503 1504 1507 1506 1511 1511 1518 1527 1522 1522 1522 1523 1524 1530 1533 1531 1530 1532 1530 1523 1518 1515 1512 1513 1517 1520 1520 1520
1482 1482 1483 1484 1484 1484 1484 1485 1487 1489 1494 1499 1500 1501 1502 1504 1506 1504 1504 1506 1513 1515 1515 1521 1524 1522 1523 1525 1526 1531 1532 1533 1538 1531 1530 1531 1524 1515 1513 1512 1513 1516 1517 1518 1518
1483 1484 1485 1487 1490 1487 1487 1488 1490 1491 1500 1511 1507 1507 1507 1506 1508 1507 1508 1509 1512 1520 1519 1525 1524 1524 1526 1527 1528 1534 1530 1531 1533 1541 1546 1534 1548 1520 1515 1515 1514 1515 1515 1516 1517
1486 1487 1489 1489 1490 1491 1492 1491 1491 1491 1514 1517 1512 1511 1509 1511 1515 1509 1509 1509 1514 1517 1520 1533 1527 1526 1527 1528 1527 1533 1530 1530 1532 1537 1546 1539 1556 1519 1514 1514 1511 1512 1513 1514 1514
1491 1490 1491 1492 1493 1494 1493 1493 1493 1505 1515 1515 1515 1514 1511 1511 1513 1514 1512 1513 1516 1520 1522 1527 1527 1527 1527 1528 1528 1530 1532 1533 1536 1544 1560 1539 1544 1524 1515 1508 1507 1509 1510 1512 1512
1495 1495 1495 1495 1495 1494 1495 1495 1501 1511 1522 1518 1517 1514 1513 1516 1512 1513 1514 1515 1520 1534 1543 1529 1530 1528 1528 1531 1531 1531 1544 1570 1560 1554 1559 1536 1541 1518 1504 1504 1504 1506 1508 1509 1508
1499 1498 1497 1496 1496 1495 1495 1496 1506 1515 1514 1518 1517 1516 1516 1516 1514 1515 1517 1521 1517 1523 1539 1549 1551 1530 1528 1529 1534 1533 1541 1562 1561 1558 1558 1537 1539 1514 1502 1503 1504 1505 1506 1506 1506
1502 1501 1498 1497 1495 1496 1496 1505 1517 1515 1514 1515 1518 1514 1515 1514 1515 1516 1518 1519 1518 1518 1530 1539 1542 1527 1528 1525 1528 1535 1545 1535 1551 1551 1558 1548 1524 1504 1504 1503 1502 1503 1503 1503 1502
1504 1502 1500 1499 1497 1497 1499 1507 1510 1510 1510 1513 1514 1510 1515 1515 1515 1516 1517 1516 1517 1516 1517 1523 1539 1529 1527 1527 1527 1529 1532 1544 1551 1555 1547 1544 1528 1513 1503 1497 1497 1498 1498 1498 1498
1505 1504 1503 1501 1500 1500 1517 1514 1510 1510 1511 1512 1510 1510 1513 1515 1516 1516 1519 1517 1516 1516 1517 1518 1525 1531 1528 1530 1529 1531 1535 1533 1538 1546 1553 1541 1521 1494 1492 1492 1493 1493 1493 1493 1493
1505 1507 1505 1503 1504 1509 1517 1512 1512 1511 1511 1510 1510 1510 1511 1512 1514 1517 1518 1517 1515 1516 1517 1519 1525 1538 1527 1522 1521 1524 1528 1530 1543 1537 1537 1539 1517 1486 1488 1488 1489 1488 1489 1489 1490
1506 1507 1507 1504 1516 1519 1512 1512 1512 1512 1511 1510 1512 1512 1511 1512 1516 1516 1518 1517 1517 1518 1520 1520 1526 1545 1534 1528 1522 1522 1522 1523 1529 1535 1535 1542 1513 1488 1488 1487 1486 1485 1485 1485 1487
1507 1509 1508 1508 1510 1511 1512 1513 1513 1512 1512 1511 1511 1511 1512 1513 1513 1517 1519 1519 1519 1520 1521 1521 1527 1529 1535 1520 1521 1522 1519 1519 1523 1542 1528 1516 1502 1489 1486 1485 1481 1480 1480 1480 1482
1506 1509 1509 1516 1511 1510 1512 1512 1513 1514 1512 1512 1513 1514 1515 1515 1515 1517 1518 1520 1520 1520 1522 1524 1530 1527 1521 1518 1517 1513 1511 1513 1516 1507 1514 1491 1496 1472 1476 1474 1472 1473 1475 1477 1477
1508 1507 1509 1509 1510 1510 1512 1512 1513 1514 1513 1514 1514 1515 1514 1515 1516 1518 1517 1520 1520 1522 1522 1523 1527 1525 1526 1511 1513 1513 1506 1503 1500 1498 1497 1490 1481 1469 1465 1468 1469 1468 1469 1470 1470
1508 1509 1510 1510 1510 1513 1512 1512 1512 1512 1512 1512 1513 1514 1514 1514 1514 1515 1517 1517 1518 1520 1523 1524 1528 1533 1525 1515 1512 1503 1481 1483 1487 1487 1483 1490 1457 1462 1462 1463 1462 1462 1462 1462 1462